Location: Unspecified
(0.0000°N, 0.0000°E)
Time: 00:27:00
(UTC+00:00)

S-56A Canister/Altair - All Passes

Search period start: 28 March 2017 00:00
Search period end: 07 April 2017 00:00
Orbit: 639 x 2495 km, 38.9° (Epoch: 26 March)

Date Brightness Start Highest point End Pass type
(mag) Time Alt. Az. Time Alt. Az. Time Alt. Az.
28 Mar - 00:31:39 10° SSW 00:42:09 24° SE 00:53:14 10° E visible
28 Mar - 02:34:54 10° SW 02:49:50 71° SE 03:03:36 10° ENE visible
28 Mar - 04:42:44 10° WSW 04:56:31 43° NW 05:07:51 10° NNE visible
28 Mar - 13:29:31 10° NNE 13:29:57 10° NE 13:30:22 10° NE daylight
28 Mar - 15:29:14 10° WNW 15:33:37 62° SW 15:38:48 10° SE daylight
28 Mar - 23:59:26 10° S 00:08:43 21° SE 00:18:45 10° ESE visible
29 Mar - 02:01:56 10° SW 02:16:26 63° SE 02:30:30 10° ENE visible
29 Mar - 04:08:56 10° WSW 04:23:17 50° NW 04:35:27 10° NNE visible
29 Mar - 06:25:10 10° WNW 06:30:14 13° NW 06:34:48 10° NNW daylight
29 Mar - 14:56:56 10° NW 15:01:23 83° SW 15:06:20 10° SE daylight
29 Mar - 23:27:29 10° S 23:35:18 17° SE 23:43:52 10° ESE night (unlit)
30 Mar - 01:29:06 10° SSW 01:43:01 56° SE 01:57:13 10° ENE visible
30 Mar - 03:35:19 10° WSW 03:49:59 57° NW 04:02:56 10° NNE visible
30 Mar - 05:49:21 10° WNW 05:57:00 16° NW 06:03:46 10° N daylight
30 Mar - 14:24:39 10° NW 14:29:10 74° NE 14:33:51 10° SE daylight
30 Mar - 16:32:29 10° SW 16:33:22 10° SSW 16:34:16 10° SSW daylight
30 Mar - 22:55:56 10° S 23:01:55 14° SE 23:08:26 10° ESE night (unlit)
31 Mar - 00:56:24 10° SSW 01:09:38 50° SE 01:23:46 10° ENE visible
31 Mar - 03:01:52 10° WSW 03:16:38 64° NW 03:30:16 10° NE visible
31 Mar - 05:14:14 10° W 05:23:45 20° NW 05:32:07 10° N visible
31 Mar - 13:52:23 10° NW 13:56:57 54° NE 14:01:23 10° ESE daylight
31 Mar - 15:58:48 10° WSW 16:00:51 13° SW 16:03:02 10° S daylight
31 Mar - 22:25:29 10° SSE 22:28:34 11° SE 22:31:49 10° SE night (unlit)
01 Apr - 00:23:49 10° SSW 00:36:16 43° SE 00:50:08 10° ENE visible
01 Apr - 02:28:35 10° SW 02:43:15 72° NW 02:57:28 10° NE visible
01 Apr - 04:39:32 10° W 04:50:26 24° NW 05:00:07 10° N visible
01 Apr - 13:20:06 10° NNW 13:24:42 41° NE 13:28:54 10° ESE daylight
01 Apr - 15:25:40 10° WSW 15:28:24 16° SW 15:31:18 10° S daylight
01 Apr - 23:51:23 10° SSW 00:02:57 38° SE 00:16:17 10° ENE visible
02 Apr - 01:55:27 10° SW 02:09:50 80° NW 02:24:33 10° NE visible
02 Apr - 04:05:11 10° W 04:17:06 28° NW 04:27:55 10° NNE visible
02 Apr - 12:47:49 10° NNW 12:52:24 32° NE 12:56:24 10° ESE daylight
02 Apr - 14:52:43 10° W 14:56:01 20° SW 14:59:27 10° S daylight
02 Apr - 23:19:06 10° SSW 23:29:42 32° SE 23:42:14 10° E night (unlit)
03 Apr - 01:22:29 10° SW 01:36:26 89° NW 01:51:29 10° NE visible
03 Apr - 03:31:06 10° W 03:43:42 33° NW 03:55:32 10° NNE visible
03 Apr - 12:15:30 10° NNW 12:20:01 26° NE 12:23:52 10° E daylight
03 Apr - 14:19:51 10° W 14:23:43 26° SW 14:27:31 10° SSE daylight
03 Apr - 22:46:59 10° SSW 22:56:30 27° SE 23:07:57 10° E night (unlit)
04 Apr - 00:49:39 10° SW 01:03:04 83° SE 01:18:16 10° NE visible
04 Apr - 02:57:16 10° W 03:10:17 37° NW 03:22:59 10° NNE visible
04 Apr - 11:43:10 10° NNW 11:47:35 22° NE 11:51:17 10° E daylight
04 Apr - 13:47:03 10° WNW 13:51:27 34° SW 13:55:32 10° SSE daylight
04 Apr - 22:15:03 10° S 22:23:22 23° SE 22:33:22 10° E night (unlit)
05 Apr - 00:16:57 10° SW 00:29:44 74° SE 00:44:55 10° NE visible
05 Apr - 02:23:40 10° WSW 02:36:51 42° NW 02:50:18 10° NNE visible
05 Apr - 04:40:25 10° NW 04:45:32 12° NNW 04:50:25 10° N visible
05 Apr - 11:10:48 10° N 11:15:05 19° NNE 11:18:37 10° ENE daylight
05 Apr - 13:14:17 10° WNW 13:19:13 46° SW 13:23:30 10° SSE daylight
05 Apr - 21:43:24 10° S 21:50:18 18° SE 21:58:29 10° E night (unlit)
05 Apr - 23:44:23 10° SW 23:56:27 66° SE 00:11:25 10° ENE visible
06 Apr - 01:50:16 10° WSW 02:03:25 48° NW 02:17:28 10° NNE visible
06 Apr - 04:04:38 10° WNW 04:11:59 15° NNW 04:19:00 10° N visible
06 Apr - 10:38:25 10° N 10:42:29 16° NNE 10:45:54 10° ENE daylight
06 Apr - 12:41:30 10° WNW 12:46:59 63° SW 12:51:27 10° SE daylight
06 Apr - 21:12:12 10° SSE 21:17:15 14° SE 21:23:03 10° ESE visible
06 Apr - 23:11:57 10° SSW 23:23:15 58° SE 23:37:47 10° ENE night (unlit)
